Location: Augirein
(42.9320°N, 0.9181°E)
Time: 18:41:13
(UTC+00:00)

Lacrosse 4 Rocket - Pass Details

Date: 20 June 2021
Orbit: 543 x 614 km, 68.0° (Epoch: 31 July)

Event Time Altitude Azimuth Distance (km) Brightness Sun altitude
Rises 01:09:12 0° 340° (NNW) 2,746 5.7 -21.6°
Reaches altitude 10° 01:11:42 10° 353° (N) 1,837 4.9 -21.5°
Maximum altitude 01:15:12 27° 52° (NE) 1,086 3.4 -21.3°
Drops below altitude 10° 01:18:39 10° 110° (ESE) 1,809 3.9 -21.1°
Enters shadow 01:20:02 - 119° (ESE) 2,295 4.4 -21.0°
